Regional Weather Roundup
Issued by NWS

Home | Current Version | Previous Version | Text Only | Print | Product List | Glossary Off
Versions: 1 2 3 4 5 6 7 8 9 10 11 12 13 14 15 16 17 18 19 20 21 22 23 24 25 26 27 28 29 30 31 32 33 34 35 36 37 38 39 40 41 42 43 44 45 46 47 48 49 50

000
ASUS43 KFSD 271402
RWRSD

WEATHER ROUNDUP FOR SOUTH DAKOTA
NATIONAL WEATHER SERVICE SIOUX FALLS SD
900 AM CDT THU APR 27 2017

NOTE: "FAIR" INDICATES FEW OR NO CLOUDS BELOW 12,000 FEET WITH NO
SIGNIFICANT WEATHER AND/OR OBSTRUCTIONS TO VISIBILITY.


SDZ001>005-009-010-012>017-271500-
NORTHWEST AND NORTH CENTRAL SOUTH DAKOTA

CITY           SKY/WX    TMP DP  RH WIND       PRES   REMARKS
BUFFALO          N/A     31  27  85 E6        29.61R WCI  25
FAITH            N/A     31  28  89 NE14      29.69R WCI  21
MOBRIDGE       CLOUDY    36  25  64 N8        29.70S
$$

SDZ012>016-024>037-041>051-057-063-072>074-271500-
SOUTHWEST AND SOUTH CENTRAL SOUTH DAKOTA

CITY           SKY/WX    TMP DP  RH WIND       PRES   REMARKS
RAPID CTY ARPT SUNNY     32  29  88 E3        29.65S
PIERRE         CLOUDY    34  27  75 N8        29.71R WCI  27
CUSTER         MOSUNNY   32  25  75 E6        29.58S WCI  26
ELLSWORTH AFB  MOSUNNY   33  31  94 SE6       29.65  WCI  27
PHILIP         PTSUNNY   28  28 100 NE13      29.70S FOG     WCI  17
PINE RIDGE     SUNNY     38  33  82 E9        29.63S
SPEARFISH      FOG       28  28 100 W5        29.62R VSB<1/4 WCI  23
WINNER         FAIR      31  28  89 N8        29.71R WCI  23
$$

SDZ004>011-016>023-039-040-271500-
NORTHEAST SOUTH DAKOTA

CITY           SKY/WX    TMP DP  RH WIND       PRES   REMARKS
ABERDEEN       CLOUDY    31  24  75 N15       29.72S WCI  20
WATERTOWN      CLOUDY    29  24  82 N18G24    29.64S WCI  16
BROOKINGS      PTSUNNY   30  24  78 N16       29.64S WCI  19
SISSETON         N/A     29  24  82 N22G28    29.67S WCI  15
$$

SDZ017-020-022-023-036>040-048>070-271500-
SOUTHEAST SOUTH DAKOTA

CITY           SKY/WX    TMP DP  RH WIND       PRES   REMARKS
SIOUX FALLS    CLOUDY    32  26  78 NW16      29.67R WCI  21
HURON          CLOUDY    33  25  72 N18       29.71R WCI  22
CHAMBERLAIN    CLOUDY    36  30  78 NW10      29.72R
MITCHELL       CLOUDY    33  26  75 N14       29.72R WCI  23
YANKTON        CLOUDY    34  25  69 NW14      29.71R WCI  24
$$

ABBREVIATIONS USED IN REMARKS
   TC - TEMPERATURE IN CELSIUS
  WCI - WIND CHILL INDEX
   HX - HEAT INDEX
  VSB - VISIBILITY





USA.gov is the U.S. government's official web portal to all federal, state and local government web resources and services.